Retour au catalogue

FENGYUN 1C DEB

LostPO
NORAD 31649·DEBRIS·🇨🇳 China

Lancé May 10, 1999 depuis Taiyuan Satellite Launch Center

Loading…

Prochains Passages (prochaines 24 heures)

TLE

PériméSource: Space-Track

Époque: Oct 3, 2025, 09:17 UTC

1 31649U 99025CBF 25276.38699904  .00002874  00000-0  26205-2 0  9996
2 31649  98.1763 321.5625 0265782  39.5588 322.4631 13.69168310598710

Suivez FENGYUN 1C DEB en temps réel avec AllMySat

Download on the App Store